Location: Fisheating Creek Campgrounds
(26.9333°N, 81.3167°W)
Time: 22:25:28
(UTC-04:00)

Cosmos 2221 Rocket - Visible Passes

Search period start: 01 August 2014 00:00
Search period end: 11 August 2014 00:00
Orbit: 621 x 650 km, 82.5° (Epoch: 01 August)

Date Brightness Start Highest point End Pass type
(mag) Time Alt. Az. Time Alt. Az. Time Alt. Az.
01 Aug 3.6 05:52:57 10° S 05:57:21 82° E 06:01:46 10° N visible
02 Aug 6.6 04:41:17 10° E 04:42:16 11° E 04:43:15 10° ENE visible
02 Aug 4.1 06:15:54 10° SSW 06:20:01 39° W 06:24:08 10° NNW visible
03 Aug 5.6 05:01:01 10° SSE 05:04:40 26° E 05:08:19 10° NE visible
04 Aug 3.9 05:23:15 13° S 05:27:11 65° E 05:31:33 10° NNE visible
05 Aug 3.8 05:46:35 16° SSW 05:49:49 49° W 05:54:05 10° N visible
06 Aug 5.8 04:32:17 15° SE 04:34:32 21° E 04:37:50 10° NE visible
06 Aug 5.0 06:09:50 12° WSW 06:12:33 20° W 06:15:50 10° NNW visible
07 Aug 4.3 04:55:30 35° SSE 04:57:01 51° E 05:01:17 10° NNE visible
08 Aug 3.5 05:18:40 48° SW 05:19:37 61° W 05:23:58 10° N visible
09 Aug 6.0 04:04:15 17° E 04:04:23 17° E 04:07:15 10° NE visible
09 Aug 4.7 05:41:48 24° W 05:42:20 25° W 05:45:58 10° NNW visible
10 Aug 4.8 04:27:20 39° ENE 04:27:20 39° ENE 04:30:59 10° NNE visible
10 Aug 5.6 06:04:52 10° W 06:05:11 10° WNW 06:05:54 10° WNW visible
